DNO575 LGAV-LFKC

Flight info

Callsign DNO575
Flight time 2h 5m
Altitude 30000
Route KOR UL53 KRK UL995 TIGRA DCT KAPPO DCT VEBOX DCT NAPOX DCT MIRSA A3 CAPCO
Aircraft A320/M-SDE3FGHIRWY/LB1

Departure

Time 2026-05-07 17:00
Airport Athens Eleftherios Venizelos International Airport (LGAV)

Arrival

Time 2026-05-07 19:06
Airport Calvi Sainte Catherine Airport (LFKC)
Time Latitude Longitude Altitude Speed Heading
2026-05-07 16:29 37.94088 23.95415 300 ft 0 kts 218°
2026-05-07 16:34 37.94089 23.95415 299 ft 0 kts 218°
2026-05-07 16:50 37.94098 23.95424 301 ft 4 kts 217°
2026-05-07 16:51 37.94119 23.95445 302 ft 4 kts 215°
2026-05-07 16:51 37.94142 23.95464 302 ft 4 kts 209°
2026-05-07 16:51 37.94166 23.95476 302 ft 4 kts 182°
2026-05-07 16:51 37.94182 23.95472 302 ft 0 kts 127°
2026-05-07 16:55 37.94178 23.95478 302 ft 5 kts 127°
2026-05-07 16:55 37.94145 23.95536 302 ft 9 kts 127°
2026-05-07 16:55 37.94107 23.95596 299 ft 9 kts 128°
2026-05-07 16:55 37.94082 23.95664 297 ft 9 kts 90°
2026-05-07 16:56 37.94116 23.95724 298 ft 8 kts 38°
2026-05-07 16:56 37.94158 23.95763 298 ft 7 kts 36°
2026-05-07 16:56 37.94355 23.95950 299 ft 20 kts 37°
2026-05-07 16:57 37.94461 23.96051 299 ft 18 kts 37°
2026-05-07 16:57 37.94556 23.96139 300 ft 16 kts 36°
2026-05-07 16:57 37.94646 23.96226 300 ft 21 kts 38°
2026-05-07 16:57 37.94779 23.96353 300 ft 24 kts 37°
2026-05-07 16:58 37.94915 23.96482 301 ft 25 kts 37°
2026-05-07 16:58 37.95054 23.96613 302 ft 25 kts 37°
2026-05-07 16:58 37.95196 23.96748 303 ft 26 kts 37°
2026-05-07 16:58 37.95301 23.96879 306 ft 15 kts 88°
2026-05-07 16:59 37.95258 23.96972 307 ft 10 kts 126°
2026-05-07 16:59 37.95207 23.97028 310 ft 8 kts 179°
2026-05-07 16:59 37.95157 23.96991 310 ft 9 kts 216°
2026-05-07 16:59 37.95085 23.96923 309 ft 23 kts 217°
2026-05-07 17:00 37.94768 23.96619 300 ft 92 kts 217°
2026-05-07 17:00 37.94085 23.95970 287 ft 147 kts 217°
2026-05-07 17:00 37.93192 23.95108 637 ft 162 kts 217°
2026-05-07 17:00 37.92268 23.94331 1311 ft 163 kts 207°
2026-05-07 17:01 37.91236 23.93675 2013 ft 165 kts 206°
2026-05-07 17:01 37.90172 23.92997 2466 ft 181 kts 207°
2026-05-07 17:01 37.88983 23.92222 2735 ft 204 kts 208°
2026-05-07 17:01 37.87668 23.91350 3084 ft 227 kts 208°
2026-05-07 17:02 37.86250 23.90399 3773 ft 236 kts 208°
2026-05-07 17:02 37.84777 23.89405 4560 ft 243 kts 208°
2026-05-07 17:02 37.83275 23.88384 5381 ft 248 kts 209°
2026-05-07 17:02 37.81876 23.86992 5932 ft 265 kts 233°
2026-05-07 17:03 37.81137 23.84855 6698 ft 270 kts 259°
2026-05-07 17:03 37.80914 23.82480 7508 ft 274 kts 265°
2026-05-07 17:03 37.80762 23.80076 8382 ft 275 kts 265°
2026-05-07 17:03 37.80616 23.77652 9241 ft 278 kts 265°
2026-05-07 17:04 37.80676 23.75199 10028 ft 283 kts 277°
2026-05-07 17:04 37.80994 23.72687 10468 ft 300 kts 279°
2026-05-07 17:04 37.81372 23.69985 10686 ft 324 kts 279°
2026-05-07 17:04 37.81779 23.67088 10947 ft 343 kts 279°
2026-05-07 17:05 37.82199 23.64083 11525 ft 350 kts 279°
2026-05-07 17:05 37.82622 23.61033 12221 ft 354 kts 279°
2026-05-07 17:05 37.83040 23.57996 12930 ft 357 kts 279°
2026-05-07 17:05 37.83462 23.54891 13653 ft 360 kts 279°
2026-05-07 17:06 37.83892 23.51764 14306 ft 363 kts 280°
2026-05-07 17:06 37.84368 23.48621 14940 ft 365 kts 281°
2026-05-07 17:06 37.84873 23.45468 15573 ft 367 kts 281°
2026-05-07 17:06 37.85391 23.42299 16196 ft 369 kts 281°
2026-05-07 17:07 37.85911 23.39108 16830 ft 371 kts 281°
2026-05-07 17:07 37.86428 23.35908 17463 ft 372 kts 281°
2026-05-07 17:07 37.86943 23.32695 18085 ft 373 kts 280°
2026-05-07 17:07 37.87456 23.29466 18658 ft 375 kts 280°
2026-05-07 17:08 37.87966 23.26225 19156 ft 377 kts 280°
2026-05-07 17:08 37.88478 23.22958 19642 ft 380 kts 280°
2026-05-07 17:08 37.88992 23.19667 20108 ft 382 kts 280°
2026-05-07 17:08 37.89508 23.16356 20571 ft 385 kts 280°
2026-05-07 17:09 37.90029 23.13018 21036 ft 388 kts 281°
2026-05-07 17:09 37.90553 23.09659 21481 ft 391 kts 281°
2026-05-07 17:09 37.91079 23.06269 21890 ft 394 kts 281°
2026-05-07 17:09 37.91611 23.02847 22320 ft 397 kts 282°
2026-05-07 17:10 37.92147 22.99401 22752 ft 400 kts 282°
2026-05-07 17:10 37.92749 22.95950 23165 ft 403 kts 287°
2026-05-07 17:10 37.93773 22.92638 23569 ft 405 kts 297°
2026-05-07 17:10 37.95246 22.89586 23937 ft 408 kts 304°
2026-05-07 17:11 37.96877 22.86637 24313 ft 409 kts 304°
2026-05-07 17:11 37.98513 22.83679 24690 ft 410 kts 304°
2026-05-07 17:11 38.00149 22.80715 25096 ft 411 kts 304°
2026-05-07 17:11 38.01786 22.77744 25492 ft 411 kts 304°
2026-05-07 17:12 38.03417 22.74776 25959 ft 409 kts 304°
2026-05-07 17:12 38.05040 22.71818 26395 ft 408 kts 304°
2026-05-07 17:12 38.06658 22.68858 26789 ft 408 kts 303°
2026-05-07 17:12 38.08275 22.65899 27154 ft 408 kts 303°
2026-05-07 17:13 38.09874 22.62974 27501 ft 409 kts 303°
2026-05-07 17:13 38.11497 22.60009 27845 ft 409 kts 303°
2026-05-07 17:13 38.13124 22.57036 28182 ft 410 kts 303°
2026-05-07 17:13 38.14753 22.54057 28514 ft 411 kts 303°
2026-05-07 17:14 38.16384 22.51072 28837 ft 412 kts 303°
2026-05-07 17:14 38.18012 22.48089 29238 ft 410 kts 303°
2026-05-07 17:14 38.19630 22.45122 29738 ft 407 kts 303°
2026-05-07 17:14 38.21231 22.42177 30067 ft 402 kts 303°
2026-05-07 17:15 38.24366 22.36372 30107 ft 396 kts 303°
2026-05-07 17:15 38.27488 22.30619 30119 ft 395 kts 303°
2026-05-07 17:16 38.30613 22.24870 30133 ft 396 kts 303°
2026-05-07 17:16 38.33761 22.19061 30120 ft 400 kts 303°
2026-05-07 17:17 38.36918 22.13208 30119 ft 401 kts 303°
2026-05-07 17:17 38.40063 22.07354 30129 ft 399 kts 303°
2026-05-07 17:18 38.43197 22.01527 30128 ft 398 kts 303°
2026-05-07 17:18 38.46321 21.95709 30122 ft 397 kts 303°
2026-05-07 17:19 38.49438 21.89883 30126 ft 397 kts 302°
2026-05-07 17:19 38.52541 21.84060 30127 ft 396 kts 303°
2026-05-07 17:20 38.55646 21.78246 30118 ft 396 kts 302°
2026-05-07 17:20 38.58748 21.72431 30114 ft 396 kts 302°
2026-05-07 17:21 38.61841 21.66614 30109 ft 396 kts 302°
2026-05-07 17:21 38.64933 21.60788 30107 ft 396 kts 302°
2026-05-07 17:22 38.68018 21.54954 30109 ft 396 kts 302°
2026-05-07 17:22 38.71082 21.49153 30103 ft 396 kts 302°
2026-05-07 17:23 38.74168 21.43313 30105 ft 396 kts 302°
2026-05-07 17:23 38.77252 21.37468 30100 ft 396 kts 302°
2026-05-07 17:24 38.80330 21.31608 30094 ft 396 kts 301°
2026-05-07 17:24 38.83408 21.25746 30095 ft 396 kts 302°
2026-05-07 17:25 38.86487 21.19877 30097 ft 396 kts 302°
2026-05-07 17:25 38.89558 21.14007 30095 ft 396 kts 301°
2026-05-07 17:26 38.92625 21.08132 30089 ft 396 kts 301°
2026-05-07 17:26 38.95693 21.02250 30084 ft 396 kts 301°
2026-05-07 17:27 38.98760 20.96359 30096 ft 397 kts 301°
2026-05-07 17:27 39.01823 20.90458 30088 ft 397 kts 301°
2026-05-07 17:28 39.04858 20.84585 30087 ft 397 kts 301°
2026-05-07 17:28 39.07917 20.78670 30085 ft 397 kts 301°
2026-05-07 17:29 39.10977 20.72750 30078 ft 397 kts 301°
2026-05-07 17:29 39.14030 20.66817 30076 ft 397 kts 301°
2026-05-07 17:30 39.17085 20.60873 30081 ft 398 kts 301°
2026-05-07 17:30 39.20144 20.54918 30076 ft 398 kts 301°
2026-05-07 17:31 39.23197 20.48962 30079 ft 398 kts 301°
2026-05-07 17:31 39.26240 20.43002 30079 ft 398 kts 300°
2026-05-07 17:32 39.29285 20.37040 30077 ft 398 kts 300°
2026-05-07 17:32 39.31813 20.32078 30096 ft 398 kts 300°
2026-05-07 17:33 39.35369 20.25087 30083 ft 399 kts 300°
2026-05-07 17:33 39.38408 20.19093 30077 ft 399 kts 300°
2026-05-07 17:34 39.41450 20.13095 30081 ft 399 kts 300°
2026-05-07 17:34 39.44490 20.07091 30060 ft 400 kts 300°
2026-05-07 17:35 39.47718 20.01266 30061 ft 402 kts 303°
2026-05-07 17:35 39.51136 19.95528 30070 ft 403 kts 303°
2026-05-07 17:36 39.54541 19.89774 30059 ft 402 kts 303°
2026-05-07 17:36 39.57899 19.83982 30074 ft 402 kts 303°
2026-05-07 17:37 39.61244 19.78161 30068 ft 403 kts 302°
2026-05-07 17:37 39.64586 19.72327 30087 ft 403 kts 302°
2026-05-07 17:38 39.67934 19.66485 30061 ft 403 kts 302°
2026-05-07 17:38 39.71287 19.60640 30059 ft 404 kts 302°
2026-05-07 17:39 39.74642 19.54790 30055 ft 404 kts 302°
2026-05-07 17:39 39.77990 19.48926 30048 ft 404 kts 302°
2026-05-07 17:40 39.80767 19.44041 30069 ft 404 kts 302°
2026-05-07 17:40 39.84108 19.38152 30054 ft 405 kts 302°
2026-05-07 17:41 39.87457 19.32255 30044 ft 405 kts 302°
2026-05-07 17:41 39.90812 19.26350 30044 ft 406 kts 302°
2026-05-07 17:42 39.94161 19.20432 30056 ft 406 kts 302°
2026-05-07 17:42 39.97507 19.14502 30047 ft 406 kts 302°
2026-05-07 17:43 40.00854 19.08568 30048 ft 407 kts 301°
2026-05-07 17:43 40.04205 19.02608 30036 ft 408 kts 301°
2026-05-07 17:44 40.07560 18.96641 30027 ft 408 kts 301°
2026-05-07 17:44 40.10927 18.90669 30026 ft 408 kts 302°
2026-05-07 17:45 40.14274 18.84733 30028 ft 408 kts 302°
2026-05-07 17:45 40.17641 18.78752 30020 ft 409 kts 301°
2026-05-07 17:46 40.21002 18.72748 30021 ft 409 kts 301°
2026-05-07 17:46 40.24367 18.66726 30047 ft 410 kts 301°
2026-05-07 17:47 40.27738 18.60687 30030 ft 411 kts 301°
2026-05-07 17:47 40.31110 18.54626 30024 ft 412 kts 301°
2026-05-07 17:48 40.34479 18.48552 30024 ft 412 kts 301°
2026-05-07 17:48 40.37854 18.42466 30032 ft 413 kts 301°
2026-05-07 17:49 40.41235 18.36367 30024 ft 414 kts 301°
2026-05-07 17:49 40.44622 18.30248 30022 ft 415 kts 301°
2026-05-07 17:50 40.48009 18.24111 30019 ft 415 kts 301°
2026-05-07 17:50 40.51393 18.17958 30012 ft 416 kts 301°
2026-05-07 17:51 40.54780 18.11802 30041 ft 416 kts 301°
2026-05-07 17:51 40.58134 18.05670 30038 ft 415 kts 301°
2026-05-07 17:52 40.61188 17.99288 30034 ft 408 kts 290°
2026-05-07 17:52 40.62948 17.92238 30025 ft 405 kts 284°
2026-05-07 17:53 40.64575 17.85138 30021 ft 405 kts 284°
2026-05-07 17:53 40.66199 17.78029 30019 ft 405 kts 284°
2026-05-07 17:54 40.67817 17.70921 30025 ft 406 kts 283°
2026-05-07 17:54 40.69435 17.63793 30016 ft 406 kts 283°
2026-05-07 17:55 40.71059 17.56653 30010 ft 407 kts 283°
2026-05-07 17:55 40.72671 17.49503 30011 ft 407 kts 283°
2026-05-07 17:56 40.74275 17.42343 30007 ft 407 kts 283°
2026-05-07 17:56 40.75879 17.35173 30012 ft 408 kts 283°
2026-05-07 17:57 40.77214 17.29209 30009 ft 408 kts 283°
2026-05-07 17:57 40.79093 17.20810 30004 ft 409 kts 283°
2026-05-07 17:58 40.80692 17.13609 29998 ft 409 kts 283°
2026-05-07 17:58 40.82286 17.06404 29996 ft 409 kts 283°
2026-05-07 17:59 40.83873 16.99186 30010 ft 409 kts 282°
2026-05-07 17:59 40.85458 16.91962 30005 ft 410 kts 282°
2026-05-07 18:00 40.87046 16.84729 30002 ft 410 kts 282°
2026-05-07 18:00 40.88622 16.77535 30001 ft 410 kts 282°
2026-05-07 18:01 40.90210 16.70240 30012 ft 410 kts 282°
2026-05-07 18:01 40.91781 16.62976 30013 ft 411 kts 282°
2026-05-07 18:02 40.94139 16.52095 30008 ft 413 kts 282°
2026-05-07 18:03 40.95705 16.44789 30010 ft 413 kts 282°
2026-05-07 18:03 40.97269 16.37473 30010 ft 413 kts 282°
2026-05-07 18:04 40.98838 16.30150 30011 ft 414 kts 282°
2026-05-07 18:04 41.00403 16.22814 29999 ft 414 kts 282°
2026-05-07 18:05 41.01968 16.15466 29988 ft 415 kts 282°
2026-05-07 18:05 41.03524 16.08107 29982 ft 415 kts 282°
2026-05-07 18:06 41.05074 16.00740 29967 ft 415 kts 282°
2026-05-07 18:06 41.06621 15.93373 29969 ft 415 kts 282°
2026-05-07 18:07 41.08164 15.85985 29966 ft 416 kts 282°
2026-05-07 18:07 41.09707 15.78595 29964 ft 416 kts 282°
2026-05-07 18:08 41.11246 15.71194 29961 ft 416 kts 282°
2026-05-07 18:08 41.12777 15.63788 30011 ft 416 kts 282°
2026-05-07 18:09 41.14288 15.56449 30009 ft 415 kts 282°
2026-05-07 18:09 41.15875 15.49098 30001 ft 415 kts 284°
2026-05-07 18:10 41.17764 15.41853 29985 ft 416 kts 286°
2026-05-07 18:10 41.19726 15.34635 29973 ft 415 kts 285°
2026-05-07 18:11 41.21626 15.27393 29987 ft 415 kts 285°
2026-05-07 18:11 41.23480 15.20113 29961 ft 416 kts 284°
2026-05-07 18:12 41.25335 15.12814 29953 ft 418 kts 284°
2026-05-07 18:12 41.27205 15.05500 29958 ft 418 kts 284°
2026-05-07 18:13 41.29063 14.98168 29957 ft 418 kts 284°
2026-05-07 18:13 41.30917 14.90828 29979 ft 419 kts 284°
2026-05-07 18:14 41.32777 14.83474 29968 ft 420 kts 284°
2026-05-07 18:14 41.34636 14.76098 29965 ft 421 kts 284°
2026-05-07 18:15 41.36478 14.68763 29963 ft 421 kts 284°
2026-05-07 18:15 41.38324 14.61368 29963 ft 421 kts 284°
2026-05-07 18:16 41.40168 14.53964 29969 ft 421 kts 284°
2026-05-07 18:16 41.42009 14.46560 29969 ft 421 kts 284°
2026-05-07 18:17 41.43836 14.39147 29971 ft 421 kts 284°
2026-05-07 18:17 41.45668 14.31732 29964 ft 421 kts 284°
2026-05-07 18:18 41.47497 14.24315 29959 ft 421 kts 284°
2026-05-07 18:18 41.49315 14.16892 29966 ft 421 kts 284°
2026-05-07 18:19 41.51132 14.09455 29964 ft 422 kts 284°
2026-05-07 18:19 41.52951 14.02002 29958 ft 422 kts 284°
2026-05-07 18:20 41.54767 13.94551 29958 ft 422 kts 284°
2026-05-07 18:20 41.56578 13.87082 29992 ft 423 kts 283°
2026-05-07 18:21 41.58381 13.79611 29988 ft 422 kts 283°
2026-05-07 18:21 41.60177 13.72148 29978 ft 422 kts 283°
2026-05-07 18:22 41.61967 13.64694 29973 ft 421 kts 283°
2026-05-07 18:22 41.63754 13.57237 29967 ft 421 kts 283°
2026-05-07 18:23 41.65528 13.49776 29962 ft 421 kts 283°
2026-05-07 18:23 41.67301 13.42314 29969 ft 421 kts 283°
2026-05-07 18:24 41.69054 13.34900 29966 ft 421 kts 283°
2026-05-07 18:24 41.70812 13.27438 29963 ft 421 kts 283°
2026-05-07 18:25 41.72574 13.19965 29962 ft 421 kts 283°
2026-05-07 18:25 41.74330 13.12499 29980 ft 420 kts 283°
2026-05-07 18:26 41.76075 13.05037 29972 ft 419 kts 283°
2026-05-07 18:26 41.77802 12.97599 29969 ft 418 kts 283°
2026-05-07 18:27 41.79520 12.90173 29968 ft 417 kts 283°
2026-05-07 18:27 41.81238 12.82752 29969 ft 417 kts 283°
2026-05-07 18:28 41.82953 12.75333 29988 ft 416 kts 283°
2026-05-07 18:28 41.84654 12.67919 29987 ft 416 kts 283°
2026-05-07 18:29 41.86351 12.60509 29979 ft 415 kts 283°
2026-05-07 18:29 41.87758 12.54353 29945 ft 415 kts 283°
2026-05-07 18:30 41.90106 12.47208 29936 ft 420 kts 290°
2026-05-07 18:30 41.92620 12.40138 29947 ft 420 kts 290°
2026-05-07 18:31 41.95130 12.33055 29968 ft 420 kts 291°
2026-05-07 18:31 41.97627 12.25988 29981 ft 417 kts 291°
2026-05-07 18:32 42.00107 12.18950 29974 ft 416 kts 291°
2026-05-07 18:32 42.01344 12.15440 30136 ft 415 kts 291°
2026-05-07 18:32 42.02577 12.11932 30132 ft 414 kts 291°
2026-05-07 18:33 42.05033 12.04930 30098 ft 414 kts 291°
2026-05-07 18:33 42.07482 11.97920 30073 ft 414 kts 291°
2026-05-07 18:34 42.09926 11.90911 30030 ft 413 kts 291°
2026-05-07 18:34 42.12365 11.83897 29998 ft 414 kts 291°
2026-05-07 18:35 42.14805 11.76876 29963 ft 414 kts 291°
2026-05-07 18:35 42.17239 11.69857 29958 ft 413 kts 291°
2026-05-07 18:36 42.19672 11.62834 29966 ft 413 kts 291°
2026-05-07 18:36 42.22096 11.55801 29963 ft 414 kts 290°
2026-05-07 18:37 42.24514 11.48759 29958 ft 414 kts 290°
2026-05-07 18:37 42.26928 11.41706 29964 ft 414 kts 290°
2026-05-07 18:38 42.29321 11.34696 29962 ft 414 kts 290°
2026-05-07 18:38 42.31744 11.27591 29988 ft 414 kts 290°
2026-05-07 18:39 42.34146 11.20527 29985 ft 413 kts 290°
2026-05-07 18:39 42.36543 11.13468 29981 ft 413 kts 290°
2026-05-07 18:40 42.38912 11.06455 29979 ft 413 kts 290°
2026-05-07 18:40 42.41300 10.99391 29975 ft 413 kts 290°
2026-05-07 18:41 42.43679 10.92322 29958 ft 413 kts 290°
2026-05-07 18:41 42.45508 10.86868 29960 ft 413 kts 290°
2026-05-07 18:42 42.47867 10.79838 29976 ft 413 kts 290°
2026-05-07 18:42 42.50239 10.72755 29975 ft 413 kts 290°
2026-05-07 18:43 42.52603 10.65665 29991 ft 413 kts 290°
2026-05-07 18:43 42.54960 10.58576 29996 ft 412 kts 290°
2026-05-07 18:44 42.57303 10.51498 29997 ft 411 kts 289°
2026-05-07 18:44 42.59644 10.44424 29992 ft 411 kts 289°
2026-05-07 18:45 42.61976 10.37359 29299 ft 408 kts 289°
2026-05-07 18:45 42.63141 10.33822 28276 ft 413 kts 290°
2026-05-07 18:45 42.64308 10.30265 27410 ft 412 kts 290°
2026-05-07 18:45 42.65472 10.26715 26570 ft 411 kts 290°
2026-05-07 18:46 42.66636 10.23167 25747 ft 410 kts 291°
2026-05-07 18:46 42.67798 10.19628 24975 ft 410 kts 291°
2026-05-07 18:46 42.68948 10.16132 24540 ft 401 kts 291°
2026-05-07 18:46 42.70078 10.12691 23966 ft 396 kts 291°
2026-05-07 18:47 42.71190 10.09284 23313 ft 393 kts 291°
2026-05-07 18:47 42.72293 10.05892 22601 ft 391 kts 291°
2026-05-07 18:47 42.73385 10.02525 21930 ft 388 kts 291°
2026-05-07 18:47 42.74457 9.99219 21293 ft 386 kts 291°
2026-05-07 18:48 42.75535 9.95890 20664 ft 383 kts 291°
2026-05-07 18:48 42.76607 9.92581 20053 ft 381 kts 291°
2026-05-07 18:48 42.77687 9.89241 19471 ft 380 kts 291°
2026-05-07 18:48 42.78734 9.85996 19067 ft 380 kts 291°
2026-05-07 18:49 42.79795 9.82702 18672 ft 379 kts 291°
2026-05-07 18:49 42.80854 9.79417 18272 ft 379 kts 291°
2026-05-07 18:49 42.81891 9.76121 17825 ft 377 kts 288°
2026-05-07 18:49 42.82612 9.72711 17376 ft 374 kts 279°
2026-05-07 18:50 42.83092 9.69241 16894 ft 372 kts 279°
2026-05-07 18:50 42.83569 9.65785 16383 ft 370 kts 279°
2026-05-07 18:50 42.84046 9.62351 15874 ft 368 kts 279°
2026-05-07 18:50 42.84523 9.58930 15377 ft 367 kts 279°
2026-05-07 18:51 42.85001 9.55525 14875 ft 365 kts 279°
2026-05-07 18:51 42.85475 9.52134 14411 ft 364 kts 279°
2026-05-07 18:51 42.85946 9.48756 13932 ft 362 kts 279°
2026-05-07 18:51 42.86409 9.45391 13423 ft 360 kts 279°
2026-05-07 18:52 42.86868 9.42035 12881 ft 360 kts 279°
2026-05-07 18:52 42.87324 9.38691 12384 ft 357 kts 279°
2026-05-07 18:52 42.87778 9.35363 11901 ft 355 kts 279°
2026-05-07 18:52 42.88230 9.32067 11427 ft 353 kts 279°
2026-05-07 18:53 42.88671 9.28830 10951 ft 350 kts 279°
2026-05-07 18:53 42.89112 9.25570 10499 ft 348 kts 279°
2026-05-07 18:53 42.89539 9.22332 10042 ft 346 kts 277°
2026-05-07 18:53 42.89673 9.19088 9558 ft 340 kts 268°
2026-05-07 18:54 42.89617 9.15881 9059 ft 336 kts 268°
2026-05-07 18:54 42.89566 9.12755 8874 ft 323 kts 268°
2026-05-07 18:54 42.89518 9.09760 8743 ft 309 kts 268°
2026-05-07 18:54 42.89471 9.06890 8622 ft 297 kts 267°
2026-05-07 18:55 42.89424 9.04130 8471 ft 286 kts 267°
2026-05-07 18:55 42.89377 9.01443 8155 ft 282 kts 267°
2026-05-07 18:55 42.89330 8.98782 7778 ft 280 kts 267°
2026-05-07 18:55 42.89284 8.96135 7394 ft 279 kts 267°
2026-05-07 18:56 42.89237 8.93499 6999 ft 277 kts 267°
2026-05-07 18:56 42.89189 8.90879 6613 ft 276 kts 267°
2026-05-07 18:56 42.89140 8.88268 6223 ft 275 kts 267°
2026-05-07 18:56 42.89093 8.85686 5978 ft 267 kts 267°
2026-05-07 18:57 42.88960 8.83226 5821 ft 255 kts 254°
2026-05-07 18:57 42.88214 8.81134 5522 ft 247 kts 228°
2026-05-07 18:57 42.86866 8.79694 5137 ft 243 kts 202°
2026-05-07 18:57 42.85235 8.79191 4742 ft 241 kts 179°
2026-05-07 18:58 42.83574 8.79190 4338 ft 242 kts 178°
2026-05-07 18:58 42.81891 8.79195 3969 ft 241 kts 178°
2026-05-07 18:58 42.80210 8.79195 3587 ft 241 kts 178°
2026-05-07 18:58 42.78534 8.79195 3232 ft 241 kts 178°
2026-05-07 18:59 42.76887 8.79199 3086 ft 233 kts 178°
2026-05-07 18:59 42.75273 8.79206 3002 ft 231 kts 178°
2026-05-07 18:59 42.73666 8.79215 3008 ft 231 kts 178°
2026-05-07 18:59 42.72060 8.79224 3009 ft 231 kts 178°
2026-05-07 19:00 42.70452 8.79232 2996 ft 231 kts 178°
2026-05-07 19:00 42.68849 8.79239 2825 ft 227 kts 178°
2026-05-07 19:00 42.67294 8.79242 2652 ft 220 kts 178°
2026-05-07 19:00 42.65781 8.79249 2459 ft 215 kts 178°
2026-05-07 19:01 42.64303 8.79257 2279 ft 210 kts 179°
2026-05-07 19:01 42.62853 8.79264 2107 ft 206 kts 180°
2026-05-07 19:01 42.61442 8.79268 1953 ft 200 kts 180°
2026-05-07 19:01 42.60063 8.79266 1793 ft 197 kts 180°
2026-05-07 19:02 42.58711 8.79055 1702 ft 195 kts 204°
2026-05-07 19:02 42.57548 8.78106 1711 ft 197 kts 217°
2026-05-07 19:02 42.56466 8.77027 1705 ft 184 kts 218°
2026-05-07 19:02 42.55453 8.76141 1708 ft 164 kts 197°
2026-05-07 19:03 42.54375 8.76096 1724 ft 154 kts 168°
2026-05-07 19:03 42.53356 8.76466 1703 ft 150 kts 171°
2026-05-07 19:03 42.52326 8.76528 1707 ft 147 kts 182°
2026-05-07 19:03 42.51307 8.76488 1679 ft 147 kts 183°
2026-05-07 19:04 42.50296 8.76562 1527 ft 146 kts 164°
2026-05-07 19:04 42.49494 8.77337 1541 ft 146 kts 121°
2026-05-07 19:04 42.49353 8.78636 1348 ft 141 kts 68°
2026-05-07 19:04 42.50019 8.79485 1098 ft 136 kts 11°
2026-05-07 19:05 42.50971 8.79324 660 ft 143 kts 350°
2026-05-07 19:05 42.51956 8.79292 303 ft 141 kts
2026-05-07 19:05 42.52895 8.79300 169 ft 125 kts
2026-05-07 19:05 42.53552 8.79296 114 ft 52 kts
2026-05-07 19:06 42.53778 8.79288 101 ft 27 kts 359°
2026-05-07 19:06 42.53824 8.79280 97 ft 6 kts 180°
2026-05-07 19:06 42.53718 8.79296 105 ft 16 kts 180°
2026-05-07 19:07 42.53628 8.79295 110 ft 10 kts 180°
2026-05-07 19:07 42.53564 8.79295 112 ft 11 kts 180°
2026-05-07 19:07 42.53466 8.79296 119 ft 17 kts 180°
2026-05-07 19:07 42.53341 8.79297 129 ft 18 kts 179°
2026-05-07 19:08 42.53212 8.79293 137 ft 20 kts 181°
2026-05-07 19:08 42.53072 8.79299 147 ft 19 kts 179°
2026-05-07 19:08 42.52952 8.79301 158 ft 15 kts 179°
2026-05-07 19:08 42.52856 8.79303 164 ft 14 kts 179°
2026-05-07 19:09 42.52721 8.79303 174 ft 23 kts 181°
2026-05-07 19:09 42.52574 8.79303 187 ft 19 kts 179°
2026-05-07 19:09 42.52447 8.79305 196 ft 17 kts 179°
2026-05-07 19:09 42.52337 8.79305 205 ft 14 kts 181°
2026-05-07 19:10 42.52260 8.79292 208 ft 8 kts 209°
2026-05-07 19:10 42.52244 8.79249 215 ft 5 kts 257°
2026-05-07 19:10 42.52247 8.79159 212 ft 12 kts 273°
2026-05-07 19:10 42.52236 8.79113 214 ft 2 kts 212°
2026-05-07 19:11 42.52233 8.79112 213 ft 1 kts 204°
2026-05-07 19:11 42.52216 8.79110 211 ft 2 kts 179°
2026-05-07 19:11 42.52214 8.79110 211 ft 0 kts 177°
2026-05-07 19:11 42.52210 8.79111 212 ft 0 kts 176°